Weather History for Ronneby, Sweden

Change the Weather History Date:

Friday, February 15, 2013

  Actual Average Record
Temperature  
Mean Temperature 34 °F -  
Max Temperature 35 °F - - ()
Min Temperature 32 °F - - ()
Degree Days  
Heating Degree Days 32    
Moisture  
Dew Point 32 °F    
Average Humidity 93    
Maximum Humidity 100    
Minimum Humidity 83    
Precipitation  
Precipitation 0.00 in - - ()
Sea Level Pressure  
Sea Level Pressure 30.20 in    
Wind  
Wind Speed 5 mph ()    
Max Wind Speed 7 mph    
Max Gust Speed -    
Visibility 2.1 miles    
Events      
T = Trace of Precipitation, MM = Missing Value Source: Averaged Metar Reports

Daily Weather History Graph

Daily Weather History Graph

Search for Another Location

Airport:

Trip Planner

Search our weather history database for the weather conditions in past years. The results will help you decide how hot, cold, wet, or windy it might be!

Date:

Astronomy

Feb. 15, 2013 Rise Set
Actual Time 7:24 AM CET 5:02 PM CET
Civil Twilight 6:45 AM CET 5:41 PM CET
Nautical Twilight 6:01 AM CET 6:25 PM CET
Astronomical Twilight 5:18 AM CET 7:08 PM CET
Moon 8:41 AM CET (2/15) No Moon Set
Length of Visible Light 10h 55m
Length of Day
9h 37m
Waxing Crescent, 28% of the Moon is Illuminated
Feb 15
Waxing Crescent
Feb 17
First Quarter
Feb 25
Full
Mar 4
Last Quarter
Mar 11
New

Hourly Weather History & Observations

Time (CET) Temp. Windchill Dew Point Humidity Pressure Visibility Wind Dir Wind Speed Gust Speed Precip Events Conditions
12:00 AM 32 °F - 30 °F 90% 30.21 in 2 mi ESE 4.5 mph - -   Mist
12:20 AM 32.0 °F 26.4 °F 30.2 °F 93% 30.18 in - East 5.8 mph - N/A   Overcast
12:50 AM 32.0 °F 27.5 °F 30.2 °F 93% 30.18 in - ESE 4.6 mph - N/A   Overcast
1:00 AM 32 °F - 30 °F 91% 30.21 in 2 mi ESE 4.5 mph - -   Overcast
1:20 AM 32.0 °F 27.5 °F 30.2 °F 93% 30.18 in - ESE 4.6 mph - N/A   Mostly Cloudy
1:50 AM 32.0 °F 26.4 °F 30.2 °F 93% 30.18 in - ESE 5.8 mph - N/A   Overcast
2:00 AM 32 °F - 31 °F 93% 30.20 in 2 mi ESE 4.5 mph - -   Mist
2:20 AM 32.0 °F 26.4 °F 32.0 °F 100% 30.18 in 2.5 mi ESE 5.8 mph - N/A   Overcast
2:50 AM 32.0 °F 26.4 °F 32.0 °F 100% 30.15 in - East 5.8 mph - N/A   Overcast
3:00 AM 32 °F - 31 °F 94% 30.19 in 2 mi ESE 4.5 mph - -   Mist
3:20 AM 33.8 °F 28.6 °F 32.0 °F 93% 30.15 in - East 5.8 mph - N/A   Overcast
3:50 AM 33.8 °F 28.6 °F 32.0 °F 93% 30.15 in - East 5.8 mph - N/A   Overcast
4:20 AM 33.8 °F 29.6 °F 32.0 °F 93% 30.15 in 1.6 mi ESE 4.6 mph - N/A   Overcast
4:50 AM 33.8 °F 30.8 °F 32.0 °F 93% 30.15 in 1.5 mi ESE 3.5 mph - N/A   Overcast
5:00 AM 33 °F - 31 °F 91% 30.18 in 1 mi ESE 4.5 mph - -   Mist
5:20 AM 33.8 °F 30.8 °F 32.0 °F 93% 30.15 in 1.4 mi ESE 3.5 mph - N/A   Overcast
5:50 AM 33.8 °F 29.6 °F 32.0 °F 93% 30.15 in 1.4 mi ESE 4.6 mph - N/A   Overcast
6:00 AM 33 °F - 31 °F 92% 30.19 in 1 mi ESE 4.5 mph - -   Mist
6:20 AM 32.0 °F 27.5 °F 32.0 °F 100% 30.15 in 1.2 mi ESE 4.6 mph - N/A   Mostly Cloudy
6:50 AM 32.0 °F 27.5 °F 32.0 °F 100% 30.15 in 1.1 mi ESE 4.6 mph - N/A   Mostly Cloudy
7:00 AM 33 °F - 31 °F 91% 30.19 in 1 mi ESE 4.5 mph - -   Overcast
7:20 AM 32.0 °F 27.5 °F 32.0 °F 100% 30.18 in 1.2 mi ESE 4.6 mph - N/A   Mostly Cloudy
7:50 AM 32.0 °F 27.5 °F 32.0 °F 100% 30.18 in 1.2 mi ESE 4.6 mph - N/A   Overcast
8:00 AM 32 °F - 31 °F 96% 30.20 in 1 mi East 4.5 mph - -   Mist
8:20 AM 32.0 °F 27.5 °F 32.0 °F 100% 30.18 in 1.2 mi ESE 4.6 mph - N/A   Overcast
8:50 AM 32.0 °F 28.7 °F 32.0 °F 100% 30.18 in 1.1 mi ESE 3.5 mph - N/A   Overcast
9:00 AM 33 °F - 32 °F 92% 30.20 in 1 mi ESE 4.5 mph - -   Mist
9:20 AM 33.8 °F 30.8 °F 32.0 °F 93% 30.18 in 1.1 mi East 3.5 mph - N/A   Overcast
9:50 AM 33.8 °F 29.6 °F 32.0 °F 93% 30.18 in 1.2 mi ESE 4.6 mph - N/A   Overcast
10:20 AM 33.8 °F 29.6 °F 32.0 °F 93% 30.18 in 1.2 mi ESE 4.6 mph - N/A   Overcast
10:50 AM 33.8 °F 28.6 °F 32.0 °F 93% 30.18 in 1.6 mi ESE 5.8 mph - N/A   Overcast
11:00 AM 34 °F - 32 °F 90% 30.22 in 2 mi ESE 4.5 mph - -   Mist
11:20 AM 33.8 °F 28.6 °F 32.0 °F 93% 30.18 in 1.7 mi ESE 5.8 mph - N/A   Mostly Cloudy
11:50 AM 33.8 °F 28.6 °F 32.0 °F 93% 30.18 in 1.9 mi ESE 5.8 mph - N/A   Mostly Cloudy
12:00 PM 34 °F - 33 °F 92% 30.22 in 2 mi ESE 4.5 mph - -   Mist
12:20 PM 33.8 °F 28.6 °F 32.0 °F 93% 30.18 in 1.9 mi ESE 5.8 mph - N/A   Mostly Cloudy
12:50 PM 33.8 °F 28.6 °F 32.0 °F 93% 30.18 in 2.2 mi ESE 5.8 mph - N/A   Mostly Cloudy
1:00 PM 35 °F - 33 °F 87% 30.22 in 3 mi ESE 4.5 mph - -   Overcast
1:20 PM 33.8 °F 28.6 °F 32.0 °F 93% 30.18 in 2.5 mi ESE 5.8 mph - N/A   Mostly Cloudy
1:50 PM 35.6 °F 30.7 °F 32.0 °F 87% 30.18 in 2.8 mi ESE 5.8 mph - N/A   Mostly Cloudy
2:00 PM 35 °F - 32 °F 83% 30.22 in 4 mi East 6.7 mph - -   Mist
2:20 PM 33.8 °F 27.7 °F 32.0 °F 93% 30.18 in 3.1 mi East 6.9 mph - N/A   Mostly Cloudy
2:50 PM 33.8 °F 27.7 °F 32.0 °F 93% 30.18 in 4.3 mi ESE 6.9 mph - N/A   Mostly Cloudy
3:00 PM 34 °F - 31 °F 86% 30.22 in 6 mi ESE 6.7 mph - -   Overcast
3:20 PM 33.8 °F 27.7 °F 32.0 °F 93% 30.18 in 3.7 mi ESE 6.9 mph - N/A   Mostly Cloudy
3:50 PM 33.8 °F 27.7 °F 32.0 °F 93% 30.18 in 3.1 mi East 6.9 mph - N/A   Mostly Cloudy
4:20 PM 33.8 °F 28.6 °F 32.0 °F 93% 30.18 in 2.5 mi East 5.8 mph - N/A   Mostly Cloudy
4:50 PM 33.8 °F 29.6 °F 32.0 °F 93% 30.18 in 3.1 mi ENE 4.6 mph - N/A   Overcast
5:00 PM 33 °F - 32 °F 92% 30.22 in 3 mi East 4.5 mph - -   Mist
5:20 PM 33.8 °F 30.8 °F 32.0 °F 93% 30.21 in 3.1 mi East 3.5 mph - N/A   Overcast
5:50 PM 33.8 °F 29.6 °F 32.0 °F 93% 30.21 in - East 4.6 mph - N/A   Overcast
6:00 PM 33 °F - 31 °F 92% 30.24 in 3 mi East 4.5 mph - -   Mist
6:20 PM 33.8 °F 29.6 °F 32.0 °F 93% 30.21 in - East 4.6 mph - N/A   Mostly Cloudy
6:50 PM 33.8 °F 29.6 °F 32.0 °F 93% 30.21 in - ENE 4.6 mph - N/A   Overcast
7:00 PM 33 °F - 32 °F 92% 30.25 in 2 mi East 4.5 mph - -   Overcast
7:20 PM 33.8 °F 28.6 °F 32.0 °F 93% 30.21 in - East 5.8 mph - N/A   Overcast
7:50 PM 33.8 °F 29.6 °F 32.0 °F 93% 30.21 in - East 4.6 mph - N/A   Overcast
8:00 PM 33 °F - 32 °F 93% 30.25 in 2 mi East 4.5 mph - -   Mist
8:20 PM 33.8 °F 29.6 °F 32.0 °F 93% 30.21 in 2.2 mi East 4.6 mph - N/A   Overcast
8:50 PM 33.8 °F 29.6 °F 32.0 °F 93% 30.21 in - East 4.6 mph - N/A   Overcast
9:00 PM 33 °F - 32 °F 96% 30.26 in 2 mi ESE 4.5 mph - -   Mist
9:20 PM 33.8 °F 29.6 °F 32.0 °F 93% 30.24 in - ESE 4.6 mph - N/A   Overcast
9:50 PM 33.8 °F 30.8 °F 32.0 °F 93% 30.24 in - ESE 3.5 mph - N/A   Overcast
10:20 PM 33.8 °F 30.8 °F 32.0 °F 93% 30.24 in 2.2 mi East 3.5 mph - N/A   Overcast
10:50 PM 33.8 °F 30.8 °F 32.0 °F 93% 30.24 in 1.8 mi East 3.5 mph - N/A   Overcast
11:00 PM 33 °F - 32 °F 95% 30.26 in 2 mi East 4.5 mph - -   Mist
11:20 PM 33.8 °F 29.6 °F 32.0 °F 93% 30.24 in - East 4.6 mph - N/A   Overcast
11:50 PM 33.8 °F 29.6 °F 32.0 °F 93% 30.24 in - East 4.6 mph - N/A   Overcast